TimePDT,TemperatureF,Dew PointF,Humidity,Sea Level PressureIn,VisibilityMPH,Wind Direction,Wind SpeedMPH,Gust SpeedMPH,PrecipitationIn,Events,Conditions,WindDirDegrees,DateUTC
12:53 AM,36.0,23.0,59,30.28,10.0,SW,3.5,-,N/A,,Clear,220,2014-05-01 07:53:00
1:53 AM,34.0,21.9,61,30.27,10.0,West,3.5,-,N/A,,Clear,260,2014-05-01 08:53:00
2:53 AM,32.0,21.9,66,30.27,10.0,Calm,Calm,-,N/A,,Clear,0,2014-05-01 09:53:00
3:53 AM,30.9,21.9,69,30.27,10.0,Calm,Calm,-,N/A,,Clear,0,2014-05-01 10:53:00
5:53 AM,28.9,21.0,72,30.27,10.0,Calm,Calm,-,N/A,,Clear,0,2014-05-01 12:53:00
6:53 AM,30.0,21.9,72,30.29,10.0,South,3.5,-,N/A,,Clear,180,2014-05-01 13:53:00
7:53 AM,39.0,25.0,57,30.27,10.0,South,3.5,-,N/A,,Clear,190,2014-05-01 14:53:00
8:53 AM,53.1,21.0,29,30.26,10.0,Calm,Calm,-,N/A,,Clear,0,2014-05-01 15:53:00
9:53 AM,60.1,21.0,22,30.25,10.0,Variable,3.5,-,N/A,,Clear,0,2014-05-01 16:53:00
10:53 AM,64.0,21.0,19,30.24,10.0,Calm,Calm,-,N/A,,Clear,0,2014-05-01 17:53:00
11:53 AM,68.0,21.0,17,30.24,10.0,Variable,3.5,-,N/A,,Clear,0,2014-05-01 18:53:00
12:53 PM,66.9,19.0,16,30.24,10.0,North,-9999.0,-,N/A,,Clear,0,2014-05-01 19:53:00
1:53 PM,70.0,23.0,17,30.23,10.0,NNE,8.1,-,N/A,,Clear,20,2014-05-01 20:53:00
2:53 PM,71.1,27.0,19,30.23,10.0,Variable,4.6,-,N/A,,Clear,0,2014-05-01 21:53:00
3:53 PM,70.0,19.9,15,30.23,10.0,SW,9.2,19.6,N/A,,Clear,230,2014-05-01 22:53:00
4:53 PM,70.0,21.0,16,30.23,10.0,SW,8.1,-,N/A,,Clear,220,2014-05-01 23:53:00
5:53 PM,66.9,24.1,20,30.24,10.0,SSW,8.1,-,N/A,,Clear,200,2014-05-02 00:53:00
6:53 PM,63.0,28.9,28,30.24,10.0,Variable,3.5,-,N/A,,Clear,0,2014-05-02 01:53:00
7:53 PM,55.9,30.9,39,30.24,10.0,Calm,Calm,-,N/A,,Clear,0,2014-05-02 02:53:00
8:53 PM,51.1,28.9,43,30.23,10.0,Calm,Calm,-,N/A,,Clear,0,2014-05-02 03:53:00
9:53 PM,48.0,30.0,50,30.23,10.0,SSW,3.5,-,N/A,,Clear,210,2014-05-02 04:53:00
10:53 PM,44.1,28.9,55,30.23,10.0,Calm,Calm,-,N/A,,Clear,0,2014-05-02 05:53:00
11:53 PM,42.1,28.9,60,30.22,10.0,Calm,Calm,-,N/A,,Clear,0,2014-05-02 06:53:00